Tiempo cada hora Kinshasa

Hoy, 20 Octubre, Martes

Tiempo Temperatura Precipitaciones Viento Presión Humedad
00:00 +20°C° 0.9 mm 0 mps 706 mmHg 95%
01:00 +22°C° 0.9 mm 1 mps 706 mmHg 97%
02:00 +21°C° 1.4 mm 1 mps 706 mmHg 97%
03:00 +21°C° 1.4 mm 1 mps 706 mmHg 98%
04:00 +19°C° 1.4 mm 0 mps 706 mmHg 98%
05:00 +21°C° 1 mm 1 mps 706 mmHg 98%
06:00 +22°C° 1 mm 1 mps 707 mmHg 98%
07:00 +22°C° 1 mm 1 mps 707 mmHg 97%
08:00 +24°C° 0.5 mm 1 mps 707 mmHg 94%
09:00 +26°C° 0.5 mm 1 mps 708 mmHg 90%
10:00 +28°C° 0.5 mm 1 mps 708 mmHg 87%
11:00 +28°C° 1.3 mm 1 mps 707 mmHg 83%
12:00 +29°C° 1.3 mm 1 mps 706 mmHg 80%
13:00 +30°C° 1.3 mm 1 mps 706 mmHg 77%
14:00 +30°C° 0.6 mm 1 mps 705 mmHg 79%
15:00 +29°C° 0.6 mm 1 mps 705 mmHg 82%
16:00 +29°C° 0.6 mm 1 mps 705 mmHg 84%
17:00 +27°C° 0.1 mm 1 mps 705 mmHg 85%
18:00 +26°C° 0.1 mm 1 mps 706 mmHg 87%
19:00 +24°C° 0.1 mm 1 mps 706 mmHg 88%
20:00 +21°C° 0 mm 0 mps 706 mmHg 89%
21:00 +21°C° 0 mm 0 mps 707 mmHg 89%
22:00 +21°C° 0 mm 0 mps 707 mmHg 90%
23:00 +20°C° 0 mm 0 mps 707 mmHg 90%

Mañana, 21 Octubre, Miércoles

Tiempo Temperatura Precipitaciones Viento Presión Humedad
00:00 +20°C° 0 mm 0 mps 707 mmHg 91%
01:00 +20°C° 0 mm 0 mps 707 mmHg 92%
02:00 +21°C° 0 mm 1 mps 706 mmHg 93%
03:00 +21°C° 0 mm 1 mps 706 mmHg 94%
04:00 +21°C° 0 mm 1 mps 706 mmHg 95%
05:00 +21°C° 0 mm 1 mps 707 mmHg 94%
06:00 +22°C° 0 mm 1 mps 707 mmHg 93%
07:00 +22°C° 0 mm 1 mps 708 mmHg 92%
08:00 +24°C° 0 mm 1 mps 708 mmHg 84%
09:00 +26°C° 0 mm 1 mps 708 mmHg 77%
10:00 +29°C° 0 mm 1 mps 708 mmHg 69%
11:00 +30°C° 0 mm 1 mps 707 mmHg 66%
12:00 +30°C° 0 mm 1 mps 707 mmHg 63%
13:00 +31°C° 0 mm 1 mps 706 mmHg 61%
14:00 +31°C° 0.1 mm 1 mps 706 mmHg 65%
15:00 +31°C° 0.1 mm 1 mps 705 mmHg 69%
16:00 +30°C° 0.1 mm 1 mps 705 mmHg 73%
17:00 +28°C° 0.2 mm 1 mps 705 mmHg 78%
18:00 +26°C° 0.2 mm 1 mps 706 mmHg 83%
19:00 +24°C° 0.2 mm 1 mps 706 mmHg 88%
20:00 +24°C° 0.4 mm 1 mps 707 mmHg 91%
21:00 +23°C° 0.4 mm 1 mps 707 mmHg 93%
22:00 +23°C° 0.4 mm 1 mps 707 mmHg 96%
23:00 +22°C° 0.8 mm 1 mps 707 mmHg 96%

Pasado mañana, 22 Octubre, Jueves

Tiempo Temperatura Precipitaciones Viento Presión Humedad
00:00 +22°C° 0.8 mm 1 mps 707 mmHg 97%
01:00 +22°C° 0.8 mm 1 mps 707 mmHg 97%
02:00 +22°C° 1.1 mm 1 mps 707 mmHg 97%
03:00 +20°C° 1.1 mm 0 mps 707 mmHg 98%
04:00 +20°C° 1.1 mm 0 mps 706 mmHg 98%
05:00 +20°C° 0.1 mm 0 mps 707 mmHg 98%
06:00 +22°C° 0.1 mm 1 mps 708 mmHg 98%
07:00 +23°C° 0.1 mm 1 mps 708 mmHg 97%
08:00 +23°C° 0.3 mm 1 mps 709 mmHg 96%
09:00 +22°C° 0.3 mm 0 mps 709 mmHg 95%
10:00 +23°C° 0.3 mm 0 mps 709 mmHg 94%
11:00 +25°C° 0.8 mm 1 mps 708 mmHg 93%
12:00 +25°C° 0.8 mm 1 mps 708 mmHg 93%
13:00 +25°C° 0.8 mm 2 mps 707 mmHg 93%
14:00 +24°C° 0.3 mm 2 mps 706 mmHg 93%
15:00 +24°C° 0.3 mm 1 mps 706 mmHg 93%
16:00 +24°C° 0.3 mm 1 mps 706 mmHg 94%
17:00 +24°C° 0.1 mm 1 mps 706 mmHg 95%
18:00 +21°C° 0.1 mm 0 mps 707 mmHg 96%
19:00 +20°C° 0.1 mm 0 mps 707 mmHg 97%
20:00 +20°C° 0.1 mm 0 mps 707 mmHg 97%
21:00 +20°C° 0.1 mm 0 mps 708 mmHg 97%
22:00 +20°C° 0.1 mm 0 mps 708 mmHg 97%
23:00 +20°C° 0 mm 0 mps 708 mmHg 97%

23 Octubre, Viernes

Tiempo Temperatura Precipitaciones Viento Presión Humedad
00:00 +20°C° 0 mm 0 mps 707 mmHg 97%
01:00 +20°C° 0 mm 0 mps 707 mmHg 97%
02:00 +20°C° 0.1 mm 0 mps 707 mmHg 97%
03:00 +20°C° 0.1 mm 0 mps 707 mmHg 97%
04:00 +20°C° 0.1 mm 0 mps 707 mmHg 97%
05:00 +20°C° 0 mm 0 mps 707 mmHg 97%
06:00 +20°C° 0 mm 0 mps 708 mmHg 97%
07:00 +21°C° 0 mm 0 mps 709 mmHg 96%
08:00 +24°C° 0.1 mm 1 mps 709 mmHg 92%
09:00 +25°C° 0.1 mm 1 mps 709 mmHg 87%
10:00 +27°C° 0.1 mm 1 mps 709 mmHg 82%
11:00 +28°C° 0.2 mm 1 mps 708 mmHg 78%
12:00 +29°C° 0.2 mm 1 mps 707 mmHg 74%
13:00 +30°C° 0.2 mm 1 mps 706 mmHg 69%
14:00 +29°C° 0.6 mm 1 mps 706 mmHg 73%
15:00 +29°C° 0.6 mm 1 mps 705 mmHg 77%
16:00 +29°C° 0.6 mm 1 mps 705 mmHg 81%
17:00 +25°C° 1 mm 0 mps 705 mmHg 85%
18:00 +24°C° 1 mm 0 mps 706 mmHg 89%
19:00 +22°C° 1 mm 0 mps 706 mmHg 92%
20:00 +22°C° 2.9 mm 0 mps 706 mmHg 94%
21:00 +24°C° 2.9 mm 1 mps 707 mmHg 95%
22:00 +23°C° 2.9 mm 1 mps 707 mmHg 97%
23:00 +23°C° 2.9 mm 1 mps 707 mmHg 97%

24 Octubre, Sábado

Tiempo Temperatura Precipitaciones Viento Presión Humedad
00:00 +23°C° 2.9 mm 1 mps 707 mmHg 97%
01:00 +23°C° 2.9 mm 2 mps 706 mmHg 98%
02:00 +22°C° 1.7 mm 1 mps 706 mmHg 98%
03:00 +22°C° 1.7 mm 1 mps 706 mmHg 98%
04:00 +22°C° 1.7 mm 1 mps 706 mmHg 98%
05:00 +22°C° 0.9 mm 1 mps 707 mmHg 98%
06:00 +22°C° 0.9 mm 1 mps 707 mmHg 98%
07:00 +23°C° 0.9 mm 1 mps 708 mmHg 98%
08:00 +23°C° 0 mm 1 mps 708 mmHg 97%
09:00 +24°C° 0 mm 1 mps 708 mmHg 96%
10:00 +22°C° 0 mm 0 mps 709 mmHg 95%
11:00 +25°C° 0.3 mm 1 mps 708 mmHg 90%
12:00 +26°C° 0.3 mm 2 mps 707 mmHg 86%
13:00 +28°C° 0.3 mm 2 mps 707 mmHg 81%
14:00 +27°C° 0.8 mm 2 mps 706 mmHg 85%
15:00 +26°C° 0.8 mm 2 mps 706 mmHg 89%
16:00 +25°C° 0.8 mm 1 mps 705 mmHg 93%
17:00 +24°C° 0 mm 1 mps 706 mmHg 94%
18:00 +23°C° 0 mm 1 mps 706 mmHg 96%
19:00 +21°C° 0 mm 0 mps 706 mmHg 97%
20:00 +21°C° 0 mm 0 mps 706 mmHg 96%
21:00 +21°C° 0 mm 0 mps 707 mmHg 96%
22:00 +21°C° 0 mm 0 mps 707 mmHg 96%
23:00 +21°C° 0 mm 0 mps 707 mmHg 95%

25 Octubre, Domingo

Tiempo Temperatura Precipitaciones Viento Presión Humedad
00:00 +21°C° 0 mm 0 mps 707 mmHg 95%
01:00 +20°C° 0 mm 0 mps 706 mmHg 95%
02:00 +20°C° 0 mm 0 mps 706 mmHg 96%
03:00 +20°C° 0 mm 0 mps 706 mmHg 96%
04:00 +20°C° 0 mm 0 mps 706 mmHg 96%
05:00 +20°C° 0 mm 0 mps 706 mmHg 96%
06:00 +21°C° 0 mm 0 mps 707 mmHg 95%
07:00 +21°C° 0 mm 0 mps 707 mmHg 95%
08:00 +23°C° 0.3 mm 0 mps 707 mmHg 87%
09:00 +26°C° 0.3 mm 0 mps 708 mmHg 79%
10:00 +28°C° 0.3 mm 0 mps 708 mmHg 71%
11:00 +31°C° 0.5 mm 1 mps 707 mmHg 69%
12:00 +31°C° 0.5 mm 1 mps 706 mmHg 66%
13:00 +31°C° 0.5 mm 1 mps 705 mmHg 64%
14:00 +31°C° 1.3 mm 1 mps 705 mmHg 70%
15:00 +30°C° 1.3 mm 1 mps 704 mmHg 77%
16:00 +29°C° 1.3 mm 1 mps 704 mmHg 84%
17:00 +27°C° 0.2 mm 1 mps 704 mmHg 86%
18:00 +23°C° 0.2 mm 0 mps 704 mmHg 88%
19:00 +22°C° 0.2 mm 0 mps 705 mmHg 90%
20:00 +21°C° 1.7 mm 0 mps 705 mmHg 92%
21:00 +21°C° 1.7 mm 0 mps 706 mmHg 93%
22:00 +21°C° 1.7 mm 0 mps 706 mmHg 95%
23:00 +20°C° 1.2 mm 0 mps 706 mmHg 96%

26 Octubre, Lunes

Tiempo Temperatura Precipitaciones Viento Presión Humedad
00:00 +20°C° 1.2 mm 0 mps 706 mmHg 96%
01:00 +20°C° 1.2 mm 0 mps 706 mmHg 97%
02:00 +20°C° 0.3 mm 0 mps 706 mmHg 97%
03:00 +20°C° 0.3 mm 0 mps 706 mmHg 97%
04:00 +19°C° 0.3 mm 0 mps 706 mmHg 98%
05:00 +20°C° 0.3 mm 0 mps 706 mmHg 98%
06:00 +20°C° 0.3 mm 0 mps 706 mmHg 98%
07:00 +23°C° 0.3 mm 1 mps 707 mmHg 98%
08:00 +24°C° 0.4 mm 1 mps 707 mmHg 93%
09:00 +26°C° 0.4 mm 1 mps 707 mmHg 89%
10:00 +27°C° 0.4 mm 1 mps 708 mmHg 84%
11:00 +27°C° 1.6 mm 1 mps 707 mmHg 85%
12:00 +28°C° 1.6 mm 1 mps 706 mmHg 85%
13:00 +28°C° 1.6 mm 1 mps 705 mmHg 86%
14:00 +28°C° 0.6 mm 1 mps 705 mmHg 85%
15:00 +28°C° 0.6 mm 1 mps 705 mmHg 84%
16:00 +28°C° 0.6 mm 1 mps 704 mmHg 83%
17:00 +26°C° 0.3 mm 1 mps 705 mmHg 87%
18:00 +25°C° 0.3 mm 1 mps 705 mmHg 91%
19:00 +24°C° 0.3 mm 1 mps 705 mmHg 95%
20:00 +23°C° 0 mm 1 mps 705 mmHg 95%
21:00 +23°C° 0 mm 1 mps 706 mmHg 95%
22:00 +21°C° 0 mm 0 mps 706 mmHg 95%
23:00 +20°C° 0 mm 0 mps 706 mmHg 96%
Mostrar más

Necesitamos Su Consentimiento

Meteoprog y nuestros Proveedores de Servicios pueden almacenar y acceder a sus datos personales como cookies, identificadores de dispositivo u otras tecnologías similares de su dispositivo y procesar dichos datos para personalizar contenido y anuncios, además de ofrecer funciones de redes sociales y analizar el tráfico.

  • Almacenar y/o acceder a información en su dispositivo

    Se puede almacenar o acceder a cookies, identificadores de dispositivo u otra información de su dispositivo para los fines anteriormente indicados.

  • Anuncios y contenido personalizados, medición de anuncios y contenido, percepciones del público, y desarrollo de productos

    Los anuncios y el contenido pueden personalizarse en base a su perfil. Se pueden añadir más datos para personalizar mejor los anuncios y contenidos. Se puede medir el rendimiento de los anuncios y contenidos. Se puede obtener la percepción sobre el público que ha visto los anuncios y contenidos. Dichos datos pueden usarse para desarrollar o mejorar la experiencia del usuario, sistemas y software.

Al hacer clic en ‘Estoy De Acuerdo’ usted permitirá el uso de las cookies, identificadores de dispositivo, balizas web u otras tecnologías similares indicadas. Su configuración puede cambiarse desde el navegador de su dispositivo.

Para ciertos fines, los intereses legítimos pueden ser considerados por encima del consentimiento. Puede leer más sobre ello en nuestra Política de Privacidad y Cookies.